TimeCST,TemperatureF,Dew PointF,Humidity,Sea Level PressureIn,VisibilityMPH,Wind Direction,Wind SpeedMPH,Gust SpeedMPH,PrecipitationIn,Events,Conditions,WindDirDegrees,DateUTC
12:52 AM,19.9,10.9,68,30.35,-9999.0,East,4.6,-,N/A,,Unknown,90,2013-02-21 06:52:00
1:52 AM,19.0,10.9,71,30.32,-9999.0,ENE,10.4,-,N/A,,Unknown,60,2013-02-21 07:52:00
2:52 AM,19.0,10.9,71,30.29,-9999.0,East,8.1,-,N/A,,Unknown,80,2013-02-21 08:52:00
3:52 AM,19.9,12.0,71,30.27,-9999.0,East,9.2,-,N/A,,Unknown,80,2013-02-21 09:52:00
4:52 AM,19.9,12.0,71,30.23,-9999.0,East,9.2,17.3,N/A,,Unknown,80,2013-02-21 10:52:00
5:52 AM,21.0,12.0,68,30.20,-9999.0,East,9.2,19.6,N/A,,Unknown,90,2013-02-21 11:52:00
6:52 AM,21.0,12.9,71,30.21,-9999.0,East,12.7,18.4,N/A,,Unknown,90,2013-02-21 12:52:00
7:52 AM,21.9,14.0,72,30.19,-9999.0,East,12.7,19.6,N/A,,Unknown,80,2013-02-21 13:52:00
8:52 AM,23.0,14.0,68,30.19,-9999.0,ENE,11.5,18.4,N/A,,Unknown,70,2013-02-21 14:52:00
9:52 AM,21.0,18.0,88,30.20,-9999.0,East,9.2,19.6,0.03,,Unknown,80,2013-02-21 15:52:00
10:52 AM,21.0,18.0,88,30.14,-9999.0,East,11.5,19.6,0.16,,Unknown,80,2013-02-21 16:52:00
11:52 AM,21.9,18.0,85,30.09,-9999.0,East,16.1,25.3,0.18,,Unknown,90,2013-02-21 17:52:00
12:52 PM,21.9,18.0,85,30.03,-9999.0,East,12.7,25.3,0.19,,Unknown,80,2013-02-21 18:52:00
1:52 PM,24.1,19.0,81,29.97,-9999.0,East,13.8,27.6,0.08,,Unknown,80,2013-02-21 19:52:00
2:52 PM,24.1,18.0,77,29.95,-9999.0,East,17.3,31.1,0.02,,Unknown,100,2013-02-21 20:52:00
3:52 PM,24.1,19.0,81,29.94,-9999.0,East,11.5,21.9,N/A,,Unknown,100,2013-02-21 21:52:00
4:52 PM,24.1,19.9,84,29.92,-9999.0,East,8.1,18.4,0.04,,Unknown,90,2013-02-21 22:52:00
5:52 PM,24.1,19.9,84,29.90,-9999.0,Variable,5.8,-,0.03,,Unknown,0,2013-02-21 23:52:00
6:52 PM,24.1,21.0,88,29.90,-9999.0,East,6.9,-,0.03,,Unknown,90,2013-02-22 00:52:00
7:52 PM,24.1,21.9,91,29.89,-9999.0,ENE,4.6,-,0.04,,Unknown,70,2013-02-22 01:52:00
8:52 PM,25.0,21.9,88,29.88,-9999.0,NE,4.6,-,0.05,,Unknown,40,2013-02-22 02:52:00
9:52 PM,25.0,21.9,88,29.87,-9999.0,NE,4.6,-,0.05,,Unknown,40,2013-02-22 03:52:00
10:52 PM,25.0,21.9,88,29.86,-9999.0,Calm,Calm,-,0.01,,Unknown,0,2013-02-22 04:52:00
11:52 PM,25.0,21.9,88,29.84,-9999.0,Calm,Calm,-,N/A,,Unknown,0,2013-02-22 05:52:00